Miscellaneous Local Product
Issued by NWS Hastings, NE

Home | Current Version | Previous Version | Graphics & Text | Print | Product List | Glossary On
Versions: 1 2 3 4 5 6 7 8 9 10 11 12 13 14 15 16 17 18 19 20 21 22 23 24 25 26 27 28 29 30 31 32 33 34 35 36 37 38 39 40 41 42 43 44 45 46 47 48 49 50
000
AXUS43 KGID 231102
MISGRI

GID CWA HOURLY WEATHER ROUNDUP
NATIONAL WEATHER SERVICE HASTINGS NE
500 AM CST THU NOV 23 2017

NOTE: "FAIR" INDICATES FEW OR NO CLOUDS BELOW 12,000 FEET WITH NO
SIGNIFICANT WEATHER AND/OR OBSTRUCTIONS TO VISIBILITY.

...SOUTH CENTRAL NEBRASKA...

CITY           SKY/WX    TMP DP  RH WIND       PRES   REMARKS
GRAND ISLAND   CLEAR     37  34  89 W5        30.05R WCI  33
KEARNEY        CLEAR     39  33  79 W7        30.06S WCI  34
HASTINGS       CLEAR     38  32  79 CALM      30.05R
ORD            CLEAR     31  30  96 W5        30.04R WCI  26
YORK           CLEAR     41  36  81 NW10      30.03R
AURORA         CLEAR     37  32  82 W6        30.04R WCI  32
LEXINGTON      CLEAR     39  34  83 W7        30.07S WCI  34
HOLDREGE       CLEAR     40  34  79 NW7       30.06S
HEBRON         CLEAR     36  28  72 CALM      30.05R

...NEBRASKA PANHANDLE...

CITY           SKY/WX    TMP DP  RH WIND       PRES   REMARKS
CHADRON        CLOUDY    36  34  92 SW9       30.07F WCI  29
ALLIANCE       CLOUDY    35  34  96 W10       30.11F WCI  27
SCOTTSBLUFF    CLOUDY    39  35  86 N9        30.13F WCI  33
SIDNEY         CLOUDY    43  37  79 W12       30.16F

...WESTERN AND NORTH CENTRAL NEBRASKA...

CITY           SKY/WX    TMP DP  RH WIND       PRES   REMARKS
VALENTINE      CLOUDY    37  33  85 SW10      30.02F WCI  30
AINSWORTH      CLEAR     40  36  87 W5        30.03F
ONEILL         CLEAR     37  34  92 W5        30.02F WCI  33
BROKEN BOW     CLEAR     41  34  76 CALM      30.05S
IMPERIAL       CLEAR     39  37  92 CALM      30.13F
NORTH PLATTE   CLEAR     32  31  96 NW7       30.09F WCI  26
MCCOOK         CLEAR     39  36  89 W8        30.10S WCI  33

...EASTERN NEBRASKA...

CITY           SKY/WX    TMP DP  RH WIND       PRES   REMARKS
NORFOLK        CLEAR     39  35  86 W8        30.00S WCI  33
SO SIOUX CITY  CLOUDY    28  23  81 NW6       30.00R WCI  22
TEKAMAH        CLOUDY    27  19  72 NW5       29.99S WCI  22
COLUMBUS       CLEAR     28  25  88 W3        30.03R
ALBION         CLEAR     37  34  88 NW9       30.03R WCI  30
OMAHA EPPLEY   CLEAR     32  22  66 CALM      30.00S
OFFUTT AFB     CLEAR     26  21  82 CALM      30.00R
MILLARD        CLEAR     31  24  75 CALM      30.00S
LINCOLN        CLEAR     33  25  72 CALM      30.03R
NEBRASKA CITY  CLEAR     37  26  64 W10       30.00R WCI  30
BEATRICE       CLEAR     32  24  71 CALM      30.03R
FALLS CITY     CLEAR     35  22  58 SW3       30.01S

...NORTHERN KANSAS...

CITY           SKY/WX    TMP DP  RH WIND       PRES   REMARKS
GOODLAND       CLOUDY    41  36  82 W9        30.16R
HILL CITY      CLEAR     41  36  82 W7        30.08F
NORTON         SUNNY     36  30  80 W6        30.07S WCI  31
PHILLIPSBURG   CLEAR     39  34  81 W6        30.07F WCI  35
SMITH CENTER   CLEAR     30  25  80 CALM      30.06S
HAYS           CLEAR     42  35  76 W10       30.07F
RUSSELL        CLEAR     34  30  85 W7        30.04F WCI  28
CONCORDIA      CLEAR     37  26  64 W10       30.03S WCI  30
SALINA         CLEAR     34  24  67 S3        30.06S
TOPEKA         CLEAR     35  23  61 S3        30.06S



USA.gov is the U.S. government's official web portal to all federal, state and local government web resources and services.